BLY1150 EGGP-EGNT

Flight info

Callsign BLY1150
Flight time 0h 29m
Altitude 13000
Route POL
Aircraft RJ1H/M-SDFGIRWY/LB1

Departure

Time 2026-05-03 21:44
Airport Liverpool John Lennon Airport (EGGP)

Arrival

Time 2026-05-03 22:13
Airport Newcastle International Airport (EGNT)
Time Latitude Longitude Altitude Speed Heading
2026-05-03 21:05 53.33540 -2.86087 85 ft 0 kts 174°
2026-05-03 21:34 53.33541 -2.86087 85 ft 2 kts 174°
2026-05-03 21:34 53.33559 -2.86088 88 ft 3 kts 188°
2026-05-03 21:34 53.33576 -2.86078 86 ft 3 kts 219°
2026-05-03 21:35 53.33586 -2.86052 86 ft 3 kts 260°
2026-05-03 21:35 53.33587 -2.86047 86 ft 0 kts 266°
2026-05-03 21:38 53.33587 -2.86050 85 ft 0 kts 270°
2026-05-03 21:39 53.33587 -2.86062 85 ft 1 kts 272°
2026-05-03 21:39 53.33588 -2.86085 87 ft 3 kts 272°
2026-05-03 21:39 53.33587 -2.86120 85 ft 4 kts 266°
2026-05-03 21:39 53.33585 -2.86166 85 ft 4 kts 265°
2026-05-03 21:40 53.33583 -2.86224 89 ft 5 kts 263°
2026-05-03 21:40 53.33562 -2.86280 89 ft 6 kts 220°
2026-05-03 21:40 53.33523 -2.86318 85 ft 7 kts 184°
2026-05-03 21:40 53.33476 -2.86333 88 ft 7 kts 222°
2026-05-03 21:41 53.33461 -2.86419 85 ft 8 kts 265°
2026-05-03 21:41 53.33457 -2.86520 85 ft 9 kts 265°
2026-05-03 21:41 53.33451 -2.86628 88 ft 10 kts 262°
2026-05-03 21:41 53.33413 -2.86719 85 ft 10 kts 210°
2026-05-03 21:42 53.33355 -2.86731 85 ft 0 kts 164°
2026-05-03 21:42 53.33354 -2.86730 85 ft 0 kts 164°
2026-05-03 21:42 53.33349 -2.86728 85 ft 1 kts 164°
2026-05-03 21:42 53.33348 -2.86727 85 ft 1 kts 158°
2026-05-03 21:43 53.33324 -2.86702 86 ft 7 kts 141°
2026-05-03 21:43 53.33289 -2.86600 86 ft 13 kts 91°
2026-05-03 21:43 53.33308 -2.86154 88 ft 76 kts 85°
2026-05-03 21:43 53.33376 -2.84890 96 ft 138 kts 80°
2026-05-03 21:44 53.33481 -2.83167 486 ft 157 kts 81°
2026-05-03 21:44 53.33636 -2.81395 1377 ft 148 kts 81°
2026-05-03 21:44 53.33973 -2.79869 2217 ft 140 kts 39°
2026-05-03 21:44 53.34924 -2.79562 2816 ft 154 kts 354°
2026-05-03 21:45 53.36059 -2.79858 3249 ft 171 kts 354°
2026-05-03 21:45 53.37237 -2.80181 3897 ft 169 kts 353°
2026-05-03 21:45 53.38414 -2.80522 4055 ft 177 kts 353°
2026-05-03 21:45 53.39664 -2.80869 4050 ft 186 kts 353°
2026-05-03 21:46 53.40946 -2.81205 4065 ft 193 kts 354°
2026-05-03 21:46 53.42317 -2.81526 4160 ft 207 kts 354°
2026-05-03 21:46 53.43810 -2.81820 4280 ft 224 kts 359°
2026-05-03 21:46 53.44846 -2.81576 4498 ft 224 kts 24°
2026-05-03 21:47 53.46217 -2.80324 4961 ft 225 kts 31°
2026-05-03 21:47 53.47579 -2.78967 5308 ft 228 kts 32°
2026-05-03 21:47 53.49380 -2.77038 5722 ft 239 kts 33°
2026-05-03 21:47 53.50320 -2.75987 5951 ft 242 kts 33°
2026-05-03 21:48 53.51730 -2.74354 6194 ft 252 kts 38°
2026-05-03 21:48 53.52897 -2.72106 6393 ft 261 kts 53°
2026-05-03 21:48 53.53934 -2.69531 6607 ft 269 kts 56°
2026-05-03 21:48 53.54936 -2.66856 6916 ft 272 kts 58°
2026-05-03 21:49 53.55917 -2.64106 7243 ft 275 kts 59°
2026-05-03 21:49 53.56881 -2.61320 7597 ft 277 kts 59°
2026-05-03 21:49 53.57840 -2.58503 8162 ft 279 kts 60°
2026-05-03 21:49 53.58815 -2.55655 8748 ft 283 kts 59°
2026-05-03 21:50 53.59813 -2.52779 9388 ft 286 kts 59°
2026-05-03 21:50 53.60817 -2.49857 10047 ft 290 kts 60°
2026-05-03 21:50 53.61831 -2.46891 10555 ft 299 kts 60°
2026-05-03 21:50 53.62910 -2.43791 10844 ft 314 kts 59°
2026-05-03 21:51 53.64043 -2.40548 11113 ft 327 kts 59°
2026-05-03 21:51 53.65204 -2.37208 11543 ft 332 kts 60°
2026-05-03 21:51 53.66360 -2.33819 12023 ft 335 kts 59°
2026-05-03 21:51 53.67545 -2.30407 12496 ft 338 kts 59°
2026-05-03 21:52 53.68739 -2.26967 12836 ft 344 kts 59°
2026-05-03 21:52 53.69954 -2.23469 12948 ft 340 kts 59°
2026-05-03 21:52 53.71126 -2.20049 12972 ft 337 kts 60°
2026-05-03 21:52 53.72298 -2.16610 12985 ft 338 kts 59°
2026-05-03 21:53 53.73479 -2.13178 12982 ft 338 kts 59°
2026-05-03 21:53 53.74948 -2.10103 12994 ft 338 kts 37°
2026-05-03 21:53 53.77029 -2.08325 13010 ft 337 kts 19°
2026-05-03 21:53 53.79256 -2.07058 13004 ft 337 kts 17°
2026-05-03 21:54 53.81490 -2.05842 13004 ft 337 kts 17°
2026-05-03 21:54 53.83730 -2.04660 13001 ft 337 kts 17°
2026-05-03 21:54 53.85941 -2.03472 12999 ft 337 kts 17°
2026-05-03 21:54 53.88202 -2.02222 13001 ft 338 kts 18°
2026-05-03 21:55 53.90400 -2.00963 13002 ft 338 kts 18°
2026-05-03 21:55 53.92622 -1.99672 12998 ft 338 kts 18°
2026-05-03 21:55 53.94847 -1.98359 13004 ft 339 kts 18°
2026-05-03 21:55 53.97071 -1.97024 13003 ft 338 kts 19°
2026-05-03 21:56 53.99270 -1.95697 12999 ft 336 kts 18°
2026-05-03 21:56 54.01479 -1.94376 12997 ft 337 kts 18°
2026-05-03 21:56 54.03690 -1.93059 12995 ft 336 kts 18°
2026-05-03 21:56 54.05897 -1.91744 13003 ft 337 kts 18°
2026-05-03 21:57 54.08116 -1.90417 13009 ft 340 kts 18°
2026-05-03 21:57 54.10341 -1.89080 13008 ft 339 kts 18°
2026-05-03 21:57 54.12568 -1.87743 12999 ft 339 kts 18°
2026-05-03 21:57 54.14812 -1.86496 12999 ft 339 kts 13°
2026-05-03 21:58 54.17111 -1.85645 12997 ft 338 kts
2026-05-03 21:58 54.19422 -1.84938 13003 ft 338 kts
2026-05-03 21:58 54.21748 -1.84264 12999 ft 338 kts
2026-05-03 21:58 54.24064 -1.83589 13006 ft 338 kts
2026-05-03 21:59 54.26383 -1.82915 12994 ft 338 kts
2026-05-03 21:59 54.28699 -1.82221 12997 ft 338 kts
2026-05-03 21:59 54.31020 -1.81497 12999 ft 338 kts
2026-05-03 21:59 54.33337 -1.80766 12992 ft 339 kts
2026-05-03 22:00 54.35614 -1.80042 12999 ft 332 kts
2026-05-03 22:00 54.37848 -1.79325 12990 ft 326 kts
2026-05-03 22:00 54.40067 -1.78623 12982 ft 318 kts
2026-05-03 22:00 54.42201 -1.77950 12984 ft 310 kts
2026-05-03 22:01 54.44336 -1.77282 12923 ft 314 kts
2026-05-03 22:01 54.46488 -1.76608 12588 ft 313 kts
2026-05-03 22:01 54.48623 -1.75943 12225 ft 310 kts
2026-05-03 22:01 54.50744 -1.75961 11864 ft 303 kts 351°
2026-05-03 22:02 54.52815 -1.76486 11504 ft 299 kts 350°
2026-05-03 22:02 54.54865 -1.77025 11204 ft 296 kts 350°
2026-05-03 22:02 54.56908 -1.77596 10668 ft 299 kts 350°
2026-05-03 22:02 54.58933 -1.78192 10179 ft 285 kts 349°
2026-05-03 22:03 54.60873 -1.78784 9669 ft 281 kts 349°
2026-05-03 22:03 54.62784 -1.79390 9132 ft 278 kts 349°
2026-05-03 22:03 54.64670 -1.80017 8613 ft 275 kts 349°
2026-05-03 22:03 54.66537 -1.80665 8100 ft 272 kts 349°
2026-05-03 22:04 54.68349 -1.81316 7599 ft 259 kts 349°
2026-05-03 22:04 54.70052 -1.81944 7216 ft 238 kts 349°
2026-05-03 22:04 54.71604 -1.82533 7054 ft 222 kts 349°
2026-05-03 22:04 54.73090 -1.83106 7049 ft 214 kts 349°
2026-05-03 22:05 54.74522 -1.83661 7097 ft 209 kts 349°
2026-05-03 22:05 54.75860 -1.84184 7096 ft 212 kts 349°
2026-05-03 22:05 54.77390 -1.84778 6667 ft 218 kts 349°
2026-05-03 22:05 54.78843 -1.85346 6202 ft 216 kts 349°
2026-05-03 22:06 54.80289 -1.85918 5693 ft 210 kts 349°
2026-05-03 22:06 54.81687 -1.86481 5233 ft 203 kts 349°
2026-05-03 22:06 54.83073 -1.87039 4562 ft 205 kts 349°
2026-05-03 22:06 54.84449 -1.87597 3831 ft 199 kts 349°
2026-05-03 22:07 54.85719 -1.88109 3599 ft 179 kts 349°
2026-05-03 22:07 54.86895 -1.88583 3524 ft 174 kts 349°
2026-05-03 22:07 54.88075 -1.89061 3505 ft 173 kts 349°
2026-05-03 22:07 54.89232 -1.89527 3500 ft 173 kts 349°
2026-05-03 22:08 54.90436 -1.90007 3279 ft 179 kts 349°
2026-05-03 22:08 54.91609 -1.90472 2895 ft 172 kts 349°
2026-05-03 22:08 54.92788 -1.90943 2504 ft 171 kts 349°
2026-05-03 22:08 54.93916 -1.91388 2171 ft 162 kts 349°
2026-05-03 22:09 54.94980 -1.91814 2028 ft 153 kts 349°
2026-05-03 22:09 54.96008 -1.91738 1973 ft 149 kts 31°
2026-05-03 22:09 54.96838 -1.90686 1979 ft 143 kts 37°
2026-05-03 22:10 54.98306 -1.88587 1991 ft 137 kts 50°
2026-05-03 22:10 54.98834 -1.87221 1999 ft 133 kts 57°
2026-05-03 22:10 54.99287 -1.85842 1999 ft 132 kts 62°
2026-05-03 22:10 54.99698 -1.84411 1996 ft 133 kts 64°
2026-05-03 22:11 55.00086 -1.82959 1944 ft 134 kts 64°
2026-05-03 22:11 55.00479 -1.81464 1728 ft 135 kts 64°
2026-05-03 22:11 55.00869 -1.79979 1544 ft 135 kts 63°
2026-05-03 22:11 55.01211 -1.78675 1367 ft 136 kts 65°
2026-05-03 22:12 55.01608 -1.77183 1175 ft 135 kts 65°
2026-05-03 22:12 55.01998 -1.75711 970 ft 132 kts 64°
2026-05-03 22:12 55.02383 -1.74270 790 ft 131 kts 63°
2026-05-03 22:12 55.02764 -1.72826 636 ft 131 kts 63°
2026-05-03 22:13 55.03148 -1.71382 435 ft 128 kts 61°
2026-05-03 22:13 55.03511 -1.70052 264 ft 113 kts 63°
2026-05-03 22:13 55.03786 -1.69033 253 ft 75 kts 68°
2026-05-03 22:13 55.03933 -1.68462 249 ft 29 kts 58°
2026-05-03 22:14 55.04026 -1.68317 248 ft 15 kts 36°
2026-05-03 22:14 55.04088 -1.68241 247 ft 6 kts 31°
2026-05-03 22:14 55.04126 -1.68229 247 ft 5 kts 344°
2026-05-03 22:14 55.04150 -1.68276 247 ft 5 kts 286°
2026-05-03 22:15 55.04144 -1.68340 248 ft 6 kts 246°
2026-05-03 22:15 55.04126 -1.68408 248 ft 7 kts 244°
2026-05-03 22:15 55.04106 -1.68483 248 ft 7 kts 244°
2026-05-03 22:15 55.04084 -1.68565 248 ft 8 kts 245°
2026-05-03 22:16 55.04061 -1.68651 249 ft 8 kts 245°
2026-05-03 22:16 55.04037 -1.68742 249 ft 8 kts 245°
2026-05-03 22:16 55.04013 -1.68834 250 ft 9 kts 245°
2026-05-03 22:16 55.03987 -1.68931 251 ft 9 kts 245°
2026-05-03 22:17 55.03962 -1.69027 251 ft 9 kts 245°
2026-05-03 22:17 55.03936 -1.69124 252 ft 9 kts 245°
2026-05-03 22:17 55.03911 -1.69220 253 ft 9 kts 245°
2026-05-03 22:17 55.03886 -1.69315 254 ft 9 kts 245°
2026-05-03 22:18 55.03861 -1.69409 255 ft 9 kts 245°
2026-05-03 22:18 55.03836 -1.69502 256 ft 8 kts 246°
2026-05-03 22:18 55.03817 -1.69596 257 ft 8 kts 252°
2026-05-03 22:18 55.03801 -1.69690 257 ft 8 kts 256°
2026-05-03 22:19 55.03790 -1.69783 258 ft 8 kts 261°
2026-05-03 22:19 55.03781 -1.69874 259 ft 8 kts 262°
2026-05-03 22:19 55.03775 -1.69962 260 ft 7 kts 265°
2026-05-03 22:19 55.03773 -1.70044 261 ft 7 kts 269°
2026-05-03 22:20 55.03773 -1.70119 262 ft 6 kts 271°
2026-05-03 22:20 55.03775 -1.70183 263 ft 5 kts 274°
2026-05-03 22:20 55.03777 -1.70235 264 ft 4 kts 274°
2026-05-03 22:20 55.03779 -1.70274 265 ft 2 kts 274°
2026-05-03 22:21 55.03779 -1.70291 265 ft 1 kts 273°
2026-05-03 22:21 55.03780 -1.70305 266 ft 2 kts 273°
2026-05-03 22:21 55.03786 -1.70357 267 ft 6 kts 295°
2026-05-03 22:21 55.03822 -1.70394 267 ft 7 kts
2026-05-03 22:22 55.03872 -1.70389 267 ft 8 kts
2026-05-03 22:22 55.03928 -1.70382 267 ft 8 kts
2026-05-03 22:22 55.03985 -1.70361 267 ft 9 kts 27°
2026-05-03 22:22 55.04030 -1.70383 267 ft 6 kts 307°
2026-05-03 22:23 55.04042 -1.70410 267 ft 0 kts 310°